Stündliche Wetter Cemer

Heute, 24 Januar, Sonntag

Zeit Temperatur Niederschläge Wind Luftdruck Luftfeuchtigkeit
00:00 -8°C° 0 mm 3 m/S 583 mmHg 12%
01:00 -8°C° 0 mm 3 m/S 582 mmHg 10%
02:00 -8°C° 0 mm 3 m/S 582 mmHg 10%
03:00 -8°C° 0 mm 3 m/S 582 mmHg 9%
04:00 -8°C° 0 mm 3 m/S 582 mmHg 9%
05:00 -8°C° 0 mm 3 m/S 581 mmHg 9%
06:00 -7°C° 0 mm 2 m/S 581 mmHg 9%
07:00 -6°C° 0 mm 2 m/S 582 mmHg 12%
08:00 -5°C° 0 mm 2 m/S 583 mmHg 16%
09:00 -4°C° 0 mm 2 m/S 583 mmHg 19%
10:00 -3°C° 0 mm 2 m/S 584 mmHg 24%
11:00 -1°C° 0 mm 2 m/S 584 mmHg 28%
12:00 +1°C° 0 mm 2 m/S 585 mmHg 33%
13:00 +1°C° 0 mm 2 m/S 584 mmHg 36%
14:00 -1°C° 0 mm 2 m/S 584 mmHg 39%
15:00 -1°C° 0 mm 2 m/S 583 mmHg 42%
16:00 -2°C° 0 mm 3 m/S 583 mmHg 36%
17:00 -5°C° 0 mm 3 m/S 582 mmHg 30%
18:00 -6°C° 0 mm 3 m/S 582 mmHg 24%
19:00 -6°C° 0 mm 3 m/S 582 mmHg 24%
20:00 -6°C° 0 mm 3 m/S 582 mmHg 24%
21:00 -6°C° 0 mm 3 m/S 582 mmHg 25%
22:00 -6°C° 0 mm 3 m/S 581 mmHg 26%
23:00 -6°C° 0 mm 3 m/S 581 mmHg 26%

Morgen, 25 Januar, Montag

Zeit Temperatur Niederschläge Wind Luftdruck Luftfeuchtigkeit
00:00 -6°C° 0 mm 3 m/S 581 mmHg 27%
01:00 -6°C° 0 mm 3 m/S 581 mmHg 29%
02:00 -6°C° 0 mm 3 m/S 581 mmHg 30%
03:00 -6°C° 0 mm 3 m/S 581 mmHg 31%
04:00 -5°C° 0 mm 3 m/S 581 mmHg 32%
05:00 -5°C° 0 mm 3 m/S 581 mmHg 33%
06:00 -4°C° 0 mm 2 m/S 581 mmHg 34%
07:00 -3°C° 0 mm 2 m/S 582 mmHg 35%
08:00 -2°C° 0 mm 2 m/S 582 mmHg 37%
09:00 -2°C° 0 mm 2 m/S 583 mmHg 38%
10:00 +1°C° 0 mm 2 m/S 583 mmHg 40%
11:00 +2°C° 0 mm 2 m/S 584 mmHg 41%
12:00 +4°C° 0 mm 1 m/S 584 mmHg 42%
13:00 +4°C° 0 mm 1 m/S 584 mmHg 45%
14:00 +3°C° 0 mm 2 m/S 583 mmHg 48%
15:00 +2°C° 0 mm 2 m/S 583 mmHg 51%
16:00 +1°C° 0 mm 2 m/S 582 mmHg 46%
17:00 -2°C° 0 mm 3 m/S 582 mmHg 41%
18:00 -4°C° 0 mm 3 m/S 581 mmHg 35%
19:00 -4°C° 0 mm 4 m/S 581 mmHg 34%
20:00 -5°C° 0 mm 4 m/S 581 mmHg 33%
21:00 -5°C° 0 mm 4 m/S 581 mmHg 32%
22:00 -5°C° 0 mm 4 m/S 581 mmHg 31%
23:00 -5°C° 0 mm 4 m/S 580 mmHg 31%

übermorgen, 26 Januar, Dienstag

Zeit Temperatur Niederschläge Wind Luftdruck Luftfeuchtigkeit
00:00 -5°C° 0 mm 4 m/S 580 mmHg 31%
01:00 -5°C° 0 mm 4 m/S 580 mmHg 31%
02:00 -5°C° 0 mm 4 m/S 580 mmHg 32%
03:00 -5°C° 0 mm 4 m/S 581 mmHg 33%
04:00 -5°C° 0 mm 4 m/S 580 mmHg 33%
05:00 -5°C° 0 mm 4 m/S 580 mmHg 33%
06:00 -6°C° 0 mm 3 m/S 580 mmHg 33%
07:00 -4°C° 0 mm 3 m/S 581 mmHg 34%
08:00 -2°C° 0 mm 2 m/S 582 mmHg 35%
09:00 -1°C° 0 mm 2 m/S 582 mmHg 35%
10:00 +1°C° 0 mm 2 m/S 583 mmHg 37%
11:00 +2°C° 0 mm 2 m/S 583 mmHg 40%
12:00 +4°C° 0 mm 2 m/S 583 mmHg 42%
13:00 +2°C° 0 mm 3 m/S 583 mmHg 44%
14:00 +2°C° 0 mm 3 m/S 582 mmHg 47%
15:00 +1°C° 0 mm 3 m/S 582 mmHg 49%
16:00 0°C° 0 mm 3 m/S 582 mmHg 46%
17:00 -2°C° 0 mm 4 m/S 581 mmHg 42%
18:00 -3°C° 0 mm 4 m/S 581 mmHg 38%
19:00 -3°C° 0 mm 4 m/S 581 mmHg 37%
20:00 -3°C° 0 mm 4 m/S 581 mmHg 36%
21:00 -3°C° 0 mm 4 m/S 581 mmHg 36%
22:00 -2°C° 0 mm 3 m/S 581 mmHg 35%
23:00 -2°C° 0 mm 3 m/S 581 mmHg 34%

27 Januar, Mittwoch

Zeit Temperatur Niederschläge Wind Luftdruck Luftfeuchtigkeit
00:00 -2°C° 0 mm 3 m/S 581 mmHg 34%
01:00 -2°C° 0 mm 3 m/S 581 mmHg 34%
02:00 -2°C° 0 mm 3 m/S 581 mmHg 34%
03:00 -2°C° 0 mm 3 m/S 581 mmHg 34%
04:00 -2°C° 0 mm 3 m/S 580 mmHg 34%
05:00 -3°C° 0 mm 4 m/S 580 mmHg 34%
06:00 -3°C° 0 mm 4 m/S 580 mmHg 33%
07:00 -2°C° 0 mm 4 m/S 580 mmHg 36%
08:00 -2°C° 0 mm 4 m/S 581 mmHg 39%
09:00 -2°C° 0 mm 4 m/S 581 mmHg 41%
10:00 -1°C° 0 mm 4 m/S 581 mmHg 43%
11:00 0°C° 0 mm 4 m/S 581 mmHg 45%
12:00 +1°C° 0 mm 5 m/S 581 mmHg 47%
13:00 +1°C° 0 mm 5 m/S 581 mmHg 49%
14:00 +1°C° 0 mm 5 m/S 580 mmHg 50%
15:00 0°C° 0 mm 5 m/S 579 mmHg 52%
16:00 -1°C° 0 mm 5 m/S 579 mmHg 53%
17:00 -2°C° 0 mm 5 m/S 578 mmHg 54%
18:00 -4°C° 0 mm 5 m/S 577 mmHg 54%
19:00 -4°C° 0 mm 5 m/S 577 mmHg 53%
20:00 -4°C° 0 mm 5 m/S 577 mmHg 52%
21:00 -4°C° 0 mm 5 m/S 577 mmHg 50%
22:00 -4°C° 0 mm 5 m/S 577 mmHg 47%
23:00 -4°C° 0 mm 5 m/S 576 mmHg 44%

28 Januar, Donnerstag

Zeit Temperatur Niederschläge Wind Luftdruck Luftfeuchtigkeit
00:00 -2°C° 0 mm 5 m/S 576 mmHg 42%
01:00 -2°C° 0 mm 5 m/S 575 mmHg 41%
02:00 -2°C° 0 mm 5 m/S 575 mmHg 41%
03:00 -3°C° 0 mm 6 m/S 575 mmHg 41%
04:00 -4°C° 0.3 mm 6 m/S 574 mmHg 54%
05:00 -4°C° 0.3 mm 6 m/S 574 mmHg 66%
06:00 -4°C° 0.3 mm 6 m/S 574 mmHg 79%
07:00 -4°C° 0 mm 6 m/S 574 mmHg 78%
08:00 -3°C° 0 mm 6 m/S 574 mmHg 77%
09:00 -3°C° 0 mm 6 m/S 574 mmHg 76%
10:00 -2°C° 0 mm 6 m/S 574 mmHg 73%
11:00 -2°C° 0 mm 6 m/S 574 mmHg 69%
12:00 -1°C° 0 mm 6 m/S 574 mmHg 66%
13:00 -1°C° 0 mm 6 m/S 574 mmHg 67%
14:00 -1°C° 0 mm 6 m/S 573 mmHg 67%
15:00 -2°C° 0 mm 6 m/S 573 mmHg 68%
16:00 -2°C° 0.2 mm 5 m/S 573 mmHg 73%
17:00 -4°C° 0.2 mm 5 m/S 572 mmHg 78%
18:00 -4°C° 0.2 mm 4 m/S 572 mmHg 83%
19:00 -4°C° 0.6 mm 4 m/S 572 mmHg 83%
20:00 -4°C° 0.6 mm 4 m/S 572 mmHg 84%
21:00 -4°C° 0.6 mm 3 m/S 573 mmHg 85%

29 Januar, Freitag

Zeit Temperatur Niederschläge Wind Luftdruck Luftfeuchtigkeit
Mehr zeigen

Wir brauchen deine Erlaubnis

Meteoprog und unser Service Anbieter werden persönliche Daten aufbewahren, so wie Cookies, Geräte Bezeichnung oder ähnliche Technologien von deinem Gerät und Prozess, so wie Persönliche Daten Inhalte und Werbungen, genauso wie social Media und den Verkehr zu analysieren.

  • Aufbewahrung und/oder Zugang zu deiner Geräte Informationen.

    Cookies, Geräte Bezeichnung oder andere Informationen, können aufbewahrt oder Zugang zu deinem Gerät erhalten, für den Grund, der oben angegeben wird.

  • Personalisierte Werbung und Inhalte, Messungen, Einblick in das Publikum und Produkt Entwicklung.

    Werbungen und Inhalte können personalisiert werden, basierend auf ein Profil. Mehr Daten können besser personalisierte Werbungen und Inhalte hinzufügen. Werbung und Inhalte können gezeigt und gemessen werden. Einblicke über das Publikum, welche die Werbung gesehen haben und den Inhalt, können abgeleitet werden. So wie Daten können genutzt werden, um es zu verbessern oder die Benutzer Erfahrung zu verbessern das System und die Software.

Wenn du “Ich stimme zu” klickst, erlaubst du uns, die Cookies zu benutzen die Geräte Bezeichnung, den Web oder ähnliche Technologien zu benutzen. Deine Settings, können in deinem Gerät bei deinem Browser geändert werden.

Für den bestimmten Zweck, berechtigten Interessen beruhen darauf, mehr als auf den Inhalt. Du kannst mehr darüber in unseren Privaten und Cookie Politik lesen.